Content
SEND FEEDBACK

Daily
Averages
Monthly
Summary
Mexico

TIERRA NEGRA, QUINTANA ROO


Home > North America > Mexico > Quintana Roo
Elevation: 75 feet     Latitude: 18 48N     Longitude: 088 34W

WEATHER
 
SELECT A DAY
Number of Records: 122,454;   Date Range: 1/1/95 - 9/15/14
 
SHARE

PRINT THIS DATA

[ ← Previous Day ]
WEATHER ALMANAC - FEBRUARY 21, 2014
[ Next Day → ]
[ °C ]   °F
Weather ElementAverageHighLow
Temperature82.3 °F89 °F (11:50 am)78.8 °F (6:46 am)
Dewpoint72.8 °F74 °F (11:50 pm)69.8 °F (6:46 am)
Humidity70.8 %80 % (11:50 pm)47 % (11:50 am)
Barometer29.93 in29.99 in (8:50 pm)29.60 in (3:08 pm)
Wind Speed10.9 mph19.6 mph (9:41 am)
Weather ElementAverage
Visibility6.5 mi
Wind DirectionESE (96.8 °)

Weather ElementTotal
Precipitation---
Cooling Degree Days18.9 (Base 65)
Growing Degree Days33.9 (Base 50)
Averaged from 22 records on February 21, 2014
WEATHER CONDITIONS BREAKOUT
WIND DIRECTION BREAKOUT
WEATHER BY HOUR - FEBRUARY 21, 2014
[ °C ]   °F
Local TimeTemperatureDewpointHumidityBarometerVisibilityWind DirectionWind SpeedGust SpeedPrecipitationEventsConditions
5:50 AM80.0 °F73.0 °F74 %29.92 in5.0 miESE (120°)6.7 mphPartly Cloudy
6:46 AM78.8 °F69.8 °F74 %29.92 in7.0 miSE (130°)17.3 mphScattered Clouds
7:41 AM80.6 °F71.6 °F74 %29.93 in7.0 miESE (120°)17.3 mphScattered Clouds
8:48 AM80.6 °F71.6 °F74 %29.96 in7.0 miESE (120°)17.3 mphScattered Clouds
8:50 AM84.0 °F72.0 °F58 %29.98 in6.0 miEast (90°)8.9 mphScattered Clouds
9:41 AM82.4 °F73.4 °F74 %29.97 in7.0 miESE (120°)19.6 mphScattered Clouds
10:45 AM82.4 °F73.4 °F74 %29.97 in7.0 miESE (120°)17.3 mphScattered Clouds
11:41 AM82.4 °F73.4 °F74 %29.96 in7.0 miESE (120°)13.8 mphScattered Clouds
11:50 AM89.0 °F72.0 °F47 %29.97 in6.0 miEast (90°)6.7 mphScattered Clouds
12:43 PM84.2 °F73.4 °F70 %29.92 in7.0 miESE (120°)17.3 mphScattered Clouds
1:46 PM84.2 °F73.4 °F70 %29.90 in7.0 miESE (120°)11.5 mphScattered Clouds
2:50 PM89.0 °F72.0 °F47 %29.91 in6.0 miEast (90°)6.7 mphScattered Clouds
3:08 PM84.2 °F73.4 °F70 %29.60 in7.0 miEast (90°)11.5 mphScattered Clouds
4:46 PM82.4 °F73.4 °F74 %29.91 in7.0 miEast (100°)11.5 mphScattered Clouds
5:50 PM83.0 °F72.0 °F62 %29.94 in6.0 miEast (90°)6.7 mphScattered Clouds
5:59 PM82.4 °F73.4 °F74 %29.93 in7.0 miCalmScattered Clouds
6:44 PM80.6 °F73.4 °F79 %29.93 in7.0 miESE (120°)5.8 mphScattered Clouds
7:45 PM80.6 °F73.4 °F79 %29.96 in7.0 miENE (70°)11.5 mphScattered Clouds
8:45 PM80.6 °F73.4 °F79 %29.97 in7.0 miENE (60°)11.5 mphScattered Clouds
8:50 PM80.0 °F72.0 °F71 %29.99 in5.0 miEast (90°)4.5 mph
9:45 PM80.6 °F73.4 °F79 %29.98 in7.0 miENE (60°)11.5 mphScattered Clouds
11:50 PM79.0 °F74.0 °F80 %29.99 in5.0 miEast (90°)4.5 mphScattered Clouds
Hourly data recorded from MMCM, located miles away from Tierra Negra, Quintana Roo







STORIES FROM OUR PARTNERS